Location: Bay Ridge
(40.6340°N, 74.0146°W)
Time: 15:41:50
(UTC+00:00)

SJ-12 - Pass Details

Date: 15 November 2019
Orbit: 570 x 585 km, 97.6° (Epoch: 10 December)

Event Time Altitude Azimuth Distance (km) Brightness Sun altitude
Rises 10:40:01 0° 4° (N) 2,818 7.3 -12.0°
Reaches altitude 10° 10:42:15 10° 358° (N) 1,914 6.4 -11.6°
Maximum altitude 10:46:10 42° 288° (WNW) 841 4.3 -10.9°
Drops below altitude 10° 10:50:04 10° 217° (SW) 1,900 6.4 -10.2°
Sets 10:52:17 0° 210° (SSW) 2,794 7.3 -9.8°
